Location: Maddington
(51.2000°N, 1.9167°W)
Time: 23:02:22
(UTC+00:00)

NOSS 3-2 (A) - Pass Details

Date: 17 January 2021
Orbit: 783 x 1425 km, 63.4° (Epoch: 07 March)

Event Time Altitude Azimuth Distance (km) Brightness Sun altitude
Rises 06:59:46 0° 187° (S) 3,327 6.5 -9.7°
Reaches altitude 10° 07:02:18 10° 177° (S) 2,450 6.0 -9.3°
Maximum altitude 07:07:14 32° 116° (ESE) 1,505 5.4 -8.6°
Drops below altitude 10° 07:12:47 10° 55° (NE) 2,775 6.3 -7.8°
Sets 07:15:50 0° 47° (NE) 3,839 6.9 -7.4°
